Change the Weather History Date:

Thursday, February 21, 2013

  Actual Average (KDHN) Record (KDHN)
Temperature  
Mean Temperature 50 °F 54 °F  
Max Temperature 69 °F 66 °F 81 °F (1961)
Min Temperature 32 °F 42 °F 25 °F (1958)
Degree Days  
Heating Degree Days 14 11  
Month to date heating degree days 272  
Since 1 July heating degree days 1488  
Moisture  
Dew Point 38 °F    
Average Humidity 67    
Maximum Humidity 100    
Minimum Humidity 30    
Precipitation  
Precipitation 0.00 in 0.17 in 4.23 in (1937)
Month to date precipitation 3.63  
Year to date precipitation 8.26  
Sea Level Pressure  
Sea Level Pressure 30.08 in    
Wind  
Wind Speed 1 mph (ESE)    
Max Wind Speed 9 mph    
Max Gust Speed -    
Visibility 10 miles    
Events      
T = Trace of Precipitation, MM = Missing Value Source: NWS Daily Summary

Daily Weather History Graph

Daily Weather History Graph

Search for Another Location

Airport or City:

Trip Planner

Search our weather history database for the weather conditions in past years. The results will help you decide how hot, cold, wet, or windy it might be!

Date:

Astronomy

Feb. 21, 2013 Rise Set
Actual Time 7:14 AM EST 6:31 PM EST
Civil Twilight 6:50 AM EST 6:56 PM EST
Nautical Twilight 6:22 AM EST 7:24 PM EST
Astronomical Twilight 5:53 AM EST 7:52 PM EST
Moon 2:55 PM EST (2/21) 4:08 AM EST (2/21)
Length of Visible Light 12h 06m
Length of Day
11h 16m
Waxing Gibbous, 83% of the Moon is Illuminated
Feb 21
Waxing Gibbous
Feb 25
Full
Mar 4
Last Quarter
Mar 11
New
Mar 19
First Quarter

Hourly Weather History & Observations

Time (EST) Temp. Windchill Dew Point Humidity Pressure Visibility Wind Dir Wind Speed Gust Speed Precip Events Conditions
12:15 AM 37.4 °F - 37.4 °F 100% 30.12 in 10.0 mi Calm Calm - N/A   Clear
12:35 AM 37.4 °F - 37.4 °F 100% 30.12 in 10.0 mi Calm Calm - N/A   Clear
12:55 AM 35.6 °F - 35.6 °F 100% 30.12 in 10.0 mi Calm Calm - N/A   Clear
1:15 AM 37.4 °F - 37.4 °F 100% 30.12 in 10.0 mi Calm Calm - N/A   Clear
1:35 AM 35.6 °F - 35.6 °F 100% 30.13 in 10.0 mi Calm Calm - N/A   Clear
1:55 AM 35.6 °F - 35.6 °F 100% 30.13 in 10.0 mi Calm Calm - N/A   Clear
2:15 AM 35.6 °F - 35.6 °F 100% 30.12 in 10.0 mi Calm Calm - N/A   Clear
2:35 AM 33.8 °F - 33.8 °F 100% 30.12 in 10.0 mi Calm Calm - N/A   Clear
2:55 AM 33.8 °F - 33.8 °F 100% 30.12 in 10.0 mi Calm Calm - N/A   Clear
3:15 AM 33.8 °F - 33.8 °F 100% 30.11 in 10.0 mi Calm Calm - N/A   Clear
3:35 AM 33.8 °F - 33.8 °F 100% 30.10 in 10.0 mi Calm Calm - N/A   Clear
3:55 AM 33.8 °F - 33.8 °F 100% 30.11 in 10.0 mi Calm Calm - N/A   Clear
4:15 AM 33.8 °F - 33.8 °F 100% 30.10 in 10.0 mi Calm Calm - N/A   Clear
4:35 AM 33.8 °F - 33.8 °F 100% 30.11 in 10.0 mi Calm Calm - N/A   Clear
4:55 AM 32.0 °F - 32.0 °F 100% 30.11 in 10.0 mi Calm Calm - N/A   Clear
5:15 AM 32.0 °F - 32.0 °F 100% 30.12 in 10.0 mi Calm Calm - N/A   Clear
5:35 AM 33.8 °F - 33.8 °F 100% 30.13 in 10.0 mi Calm Calm - N/A   Clear
6:15 AM 33.8 °F - 33.8 °F 100% 30.14 in 10.0 mi Calm Calm - N/A   Clear
7:15 AM 33.8 °F - 33.8 °F 100% 30.15 in 10.0 mi Calm Calm - N/A   Clear
7:35 AM 32.0 °F - 32.0 °F 100% 30.15 in 10.0 mi Calm Calm - N/A   Clear
7:55 AM 33.8 °F - 33.8 °F 100% 30.16 in 10.0 mi Calm Calm - N/A   Clear
8:15 AM 35.6 °F - 33.8 °F 93% 30.17 in 10.0 mi Calm Calm - N/A   Clear
8:35 AM 39.2 °F - 33.8 °F 81% 30.17 in 10.0 mi Calm Calm - N/A   Clear
8:55 AM 41.0 °F 39.0 °F 33.8 °F 76% 30.17 in 10.0 mi East 3.5 mph - N/A   Clear
9:15 AM 44.6 °F 41.4 °F 33.8 °F 66% 30.17 in 10.0 mi East 5.8 mph - N/A   Clear
9:35 AM 46.4 °F 44.3 °F 33.8 °F 62% 30.17 in 10.0 mi East 4.6 mph - N/A   Clear
9:55 AM 50.0 °F - 32.0 °F 50% 30.18 in 10.0 mi East 6.9 mph - N/A   Clear
10:15 AM 51.8 °F - 32.0 °F 47% 30.17 in 10.0 mi East 6.9 mph - N/A   Clear
10:35 AM 53.6 °F - 32.0 °F 44% 30.16 in 10.0 mi East 4.6 mph - N/A   Clear
10:55 AM 55.4 °F - 32.0 °F 41% 30.17 in 10.0 mi East 5.8 mph - N/A   Clear
11:15 AM 59.0 °F - 32.0 °F 36% 30.16 in 10.0 mi East 5.8 mph - N/A   Clear
11:35 AM 59.0 °F - 32.0 °F 36% 30.15 in 10.0 mi East 6.9 mph - N/A   Clear
11:55 AM 60.8 °F - 32.0 °F 34% 30.14 in 10.0 mi SE 6.9 mph - N/A   Clear
12:15 PM 62.6 °F - 32.0 °F 32% 30.13 in 10.0 mi ESE 3.5 mph - N/A   Clear
12:35 PM 62.6 °F - 33.8 °F 34% 30.12 in 10.0 mi Calm Calm - N/A   Clear
12:55 PM 64.4 °F - 33.8 °F 32% 30.10 in 10.0 mi East 6.9 mph - N/A   Clear
1:15 PM 66.2 °F - 35.6 °F 32% 30.09 in 10.0 mi SE 6.9 mph - N/A   Clear
1:35 PM 66.2 °F - 35.6 °F 32% 30.08 in 10.0 mi SW 4.6 mph - N/A   Clear
1:55 PM 68.0 °F - 35.6 °F 30% 30.06 in 10.0 mi South 4.6 mph - N/A   Clear
2:15 PM 68.0 °F - 35.6 °F 30% 30.05 in 10.0 mi South 6.9 mph - N/A   Clear
2:35 PM 68.0 °F - 35.6 °F 30% 30.04 in 10.0 mi Calm Calm - N/A   Clear
2:55 PM 68.0 °F - 35.6 °F 30% 30.03 in 10.0 mi ESE 8.1 mph - N/A   Clear
3:15 PM 69.8 °F - 37.4 °F 31% 30.02 in 10.0 mi SSE 5.8 mph - N/A   Clear
3:35 PM 69.8 °F - 37.4 °F 31% 30.01 in 10.0 mi ESE 9.2 mph - N/A   Clear
3:55 PM 69.8 °F - 37.4 °F 31% 30.01 in 10.0 mi SSE 4.6 mph - N/A   Clear
4:15 PM 69.8 °F - 39.2 °F 33% 30.01 in 10.0 mi South 4.6 mph - N/A   Clear
4:35 PM 69.8 °F - 41.0 °F 35% 30.00 in 10.0 mi ESE 4.6 mph - N/A   Clear
4:55 PM 69.8 °F - 41.0 °F 35% 30.00 in 10.0 mi Calm Calm - N/A   Clear
5:15 PM 69.8 °F - 41.0 °F 35% 30.00 in 10.0 mi SE 3.5 mph - N/A   Clear
5:35 PM 69.8 °F - 41.0 °F 35% 29.99 in 10.0 mi ESE 3.5 mph - N/A   Clear
5:55 PM 69.8 °F - 42.8 °F 38% 29.98 in 10.0 mi Calm Calm - N/A   Clear
6:15 PM 68.0 °F - 42.8 °F 40% 29.98 in 10.0 mi Calm Calm - N/A   Clear
6:35 PM 66.2 °F - 42.8 °F 43% 29.99 in 10.0 mi Calm Calm - N/A   Clear
6:55 PM 62.6 °F - 44.6 °F 52% 29.99 in 10.0 mi Calm Calm - N/A   Clear
7:15 PM 60.8 °F - 46.4 °F 59% 30.00 in 10.0 mi Calm Calm - N/A   Clear
7:35 PM 59.0 °F - 48.2 °F 67% 30.00 in 10.0 mi Calm Calm - N/A   Clear
7:55 PM 59.0 °F - 48.2 °F 67% 30.00 in 10.0 mi Calm Calm - N/A   Clear
8:15 PM 57.2 °F - 50.0 °F 77% 30.00 in 10.0 mi Calm Calm - N/A   Clear
8:35 PM 55.4 °F - 48.2 °F 77% 30.00 in 10.0 mi Calm Calm - N/A   Clear
8:55 PM 55.4 °F - 50.0 °F 82% 30.01 in 10.0 mi Calm Calm - N/A   Clear
9:15 PM 55.4 °F - 48.2 °F 77% 30.02 in 10.0 mi Calm Calm - N/A   Clear
9:35 PM 55.4 °F - 48.2 °F 77% 30.01 in 10.0 mi Calm Calm - N/A   Clear
9:55 PM 55.4 °F - 48.2 °F 77% 30.01 in 10.0 mi Calm Calm - N/A   Clear
10:15 PM 53.6 °F - 50.0 °F 88% 30.02 in 10.0 mi Calm Calm - N/A   Clear
10:35 PM 53.6 °F - 48.2 °F 82% 30.02 in 10.0 mi Calm Calm - N/A   Clear
10:55 PM 53.6 °F - 50.0 °F 88% 30.01 in 10.0 mi Calm Calm - N/A   Clear
11:15 PM 55.4 °F - 50.0 °F 82% 30.00 in 10.0 mi Calm Calm - N/A   Clear
11:35 PM 53.6 °F - 48.2 °F 82% 30.00 in 10.0 mi Calm Calm - N/A   Clear
11:55 PM 53.6 °F - 48.2 °F 82% 30.00 in 10.0 mi Calm Calm - N/A   Scattered Clouds